AirNav   Pilot Hours Calculator
 
 1247 users online  

OK47 Miller Brothers Airport
Manchester, Oklahoma, USA

GOING TO MANCHESTER?


FAA INFORMATION EFFECTIVE 19 MAY 2022

Location

FAA Identifier: OK47
Lat/Long: 36-56-30.0940N 098-01-01.2220W
36-56.501567N 098-01.020367W
36.9416928,-98.0170061
(estimated)
Elevation: 1250 ft. / 381 m (estimated)
Variation: 07E (1985)
From city: 3 miles S of MANCHESTER, OK
Time zone: UTC -5 (UTC -6 during Standard Time)
Zip code: 73758

Airport Operations

Airport use: Private use. Permission required prior to landing
Control tower: no
ARTCC: KANSAS CITY CENTER
FSS: MC ALESTER FLIGHT SERVICE STATION
Attendance: UNATNDD
Wind indicator: yes
Segmented circle: no

Nearby radio navigation aids

VOR radial/distance  VOR name  Freq  Var
ODGr334/35.8WOODRING VOR/DME109.0008E
ENDr347/36.1VANCE VORTAC115.4005E

Airport Services

Airframe service: NONE
Powerplant service: NONE

Runway Information

Runway N/S

Dimensions: 1300 x 50 ft. / 396 x 15 m
Surface: turf
RUNWAY N  RUNWAY S
Traffic pattern: leftleft

Airport Ownership and Management from official FAA records

Ownership: Privately-owned
Owner: MILLER BROTHERS
11905 S. HOLLEY ST.
JENKS, OK 74037
Phone 918-298-0429
Manager: MARTIN H. MILLER
11905 S. HOLLEY ST.
JENKS, OK 74037
Phone 918-298-0429

Airport Operational Statistics

Aircraft based on the field: 1
Single engine airplanes: 1
    

Additional Remarks

FARM BLDGS NW CORNER.
FOR CD CTC VANCE APCH AT580-213-6765. WHEN VANCE APCH IS CLSD, CTC KANSAS CITY ARTCC AT 913-254-8508.

Instrument Procedures

There are no published instrument procedures at OK47.

Some nearby airports with instrument procedures:

KANY - Anthony Municipal Airport (13 nm N)
O53 - Medford Municipal Airport (16 nm SE)
8K2 - Harper Municipal Airport (20 nm N)
KAVK - Alva Regional Airport (33 nm W)
KBKN - Blackwell-Tonkawa Municipal Airport (34 nm E)
 
Loc | Ops | Rwys | IFR | FBO | Links
Com | Nav | Svcs | Stats | Notes
Area around OK47 (Miller Brothers Airport)
 
Road maps at: MapQuest Bing Google
 
Aerial photo
No photo
 
Sectional chart

 
Airport distance calculator
Flying to Miller Brothers Airport? Find the distance to fly.

From to OK47

Sunrise and sunset
Times for 27-May-2022
 Local
(UTC-5)
 Zulu
(UTC)
Morning civil twilight05:4710:47
Sunrise06:1711:17
Sunset20:4101:41
Evening civil twilight21:1102:11

Current date and time
Zulu (UTC)  27-May-2022 22:15:01
Local (UTC-5)  27-May-2022 17:15:01
 
METAR
KP28 
33nm NW 
272156Z AUTO 19011G26KT 31/12 A2989 RMK AO1 PK WND 17026/2147 SLP109 T03060117 $
KAVK 
33nm W 
272200Z AUTO 19016G21KT 10SM CLR 32/11 A2991 RMK AO2
KBKN 
34nm E 
272155Z AUTO 16013G22KT 130V210 10SM CLR 29/15 A2992 RMK AO2
KWDG 
37nm S 
272150Z 17015G20KT 10SM FEW200 30/13 A2992
KEND 
38nm S 
272156Z AUTO M 10SM CLR 31/11 A2992 RMK AO2 SLP124 T03130111 $
KEGT 
38nm NE 
272155Z AUTO 20010KT 10SM CLR 29/12 A2993 RMK AO2 T02910124
TAF
KEND 
38nm S 
262305Z 2623/2724 33018G28KT 9999 FEW035 QNH2990INS BECMG 2623/2624 35010KT 9999 SKC QNH2991INS BECMG 2705/2706 23010G15KT 9999 SKC QNH2988INS BECMG 2712/2713 27006KT 9999 SKC QNH3001INS TX26/2718Z TN12/2711Z LAST NO AMDS AFT 2623 NEXT 3105
KPNC 
46nm E 
271720Z 2718/2818 19006KT P6SM SKC FM280700 16009KT P6SM FEW250 WS020/20040KT FM281400 17013G20KT P6SM SCT250
NOTAMs
Click for the latest NOTAMs
NOTAMs are issued by the DoD/FAA and will open in a separate window not controlled by AirNav.

 

 
 

Would you like to see your business listed on this page?

 If your business provides an interesting product or service to pilots, flight crews, aircraft, or users of the Miller Brothers Airport, you should consider listing it here.  To start the listing process, click on the button below
 
Add a business
 

Other Pages about Miller Brothers Airport

Update a link
 
Copyright © AirNav, LLC. All rights reserved. Privacy Policy  Contact